Regional Weather Roundup
Issued by NWS Albany, NY

Home | Current Version | Previous Version | Graphics & Text | Print | Product List | Glossary Off
Versions: 1 2 3 4 5 6 7 8 9 10 11 12 13 14 15 16 17 18 19 20 21 22 23 24 25 26 27 28 29 30 31 32 33 34 35 36 37 38 39 40 41 42 43 44 45 46 47 48 49 50

000
ASUS41 KALY 301610
RWRALY

NEW YORK STATE HOURLY WEATHER ROUNDUP
NATIONAL WEATHER SERVICE ALBANY NY
1200 PM EDT WED JUL 30 2014

NOTE: "FAIR" INDICATES FEW OR NO CLOUDS BELOW 12,000 FEET WITH NO
SIGNIFICANT WEATHER AND/OR NO OBSTRUCTIONS TO VISIBILITY.

NYZ032-033-038>043-046>054-057>066-NYZ062>081-301700-
EAST


CITY           SKY/WX    TMP DP  RH WIND       PRES   REMARKS
ALBANY         MOSUNNY   72  53  51 VRB5      30.03F
GLENS FALLS    SUNNY     70  54  56 SE8       30.02S
POUGHKEEPSIE   MOSUNNY   74  53  48 VRB3      30.02F
MONTGOMERY     MOSUNNY   74  53  48 S7        30.03F
WHITE PLAINS   MOSUNNY   74  50  42 NW7       30.03F
ISLIP          MOSUNNY   77  51  40 N8        30.01S
NEW YORK CITY  MOSUNNY   77  47  34 VRB6      30.02F
CENTRAL PARK   SUNNY     76  48  37 W5        30.05F
$$

NYZ005>009-017-018-044>046-055-056-301700-
CENTRAL


CITY           SKY/WX    TMP DP  RH WIND       PRES   REMARKS
FULTON         MOSUNNY   71  56  58 S10       29.99F
SYRACUSE       PTSUNNY   74  53  48 S9        29.99F
ROME           PTSUNNY   71  53  52 S10       30.02F
ELMIRA         CLOUDY    69  55  60 SW12      30.02F
BINGHAMTON     PTSUNNY   67  53  61 SW7       30.05F
MONTICELLO     MOSUNNY   66  52  59 SW3       30.07F
$$

NYZ026>034-041>043-301700-
NORTH


CITY           SKY/WX    TMP DP  RH WIND       PRES   REMARKS
WATERTOWN      MOSUNNY   70  52  52 S8        29.98F
FORT DRUM      NOT AVBL
MASSENA        PTSUNNY   68  57  68 W10       29.99S
SARANAC LAKE   SUNNY     66  48  52 SW14      30.01F
PLATTSBURGH    SUNNY     69  57  65 SE10      30.00F
$$

NYZ001>004-010>016-019>021-301700-
WEST


CITY           SKY/WX    TMP DP  RH WIND       PRES   REMARKS
NIAGARA FALLS  PTSUNNY   65  57  75 N6        29.96R
BUFFALO        MOSUNNY   69  57  65 SW14G22   29.97F
DUNKIRK        MOSUNNY   70  56  61 W14       29.99R
JAMESTOWN      CLOUDY    61  57  88 SW6       30.03S
WELLSVILLE     PTSUNNY   63  54  72 SW9       30.06R
ROCHESTER      PTSUNNY   70  58  65 SW8       29.98F
PENN YAN       MOSUNNY   69  57  65 S12       30.01F
$$

             KEY
       WCI = WIND CHILL INDEX
       VSB = VISIBILITY
       HX  = HEAT INDEX
$$



USA.gov is the U.S. government's official web portal to all federal, state and local government web resources and services.